TimeEDT,TemperatureF,Dew PointF,Humidity,Sea Level PressureIn,VisibilityMPH,Wind Direction,Wind SpeedMPH,Gust SpeedMPH,PrecipitationIn,Events,Conditions,WindDirDegrees,DateUTC
12:51 AM,43.0,41.9,96,31.08,10.0,Calm,Calm,-,N/A,,Clear,0,2013-09-18 04:51:00
1:51 AM,41.0,39.9,96,31.07,10.0,Calm,Calm,-,N/A,,Clear,0,2013-09-18 05:51:00
2:51 AM,39.9,38.8,96,31.07,10.0,Calm,Calm,-,N/A,,Clear,0,2013-09-18 06:51:00
3:51 AM,39.9,38.8,96,31.06,10.0,Calm,Calm,-,N/A,,Clear,0,2013-09-18 07:51:00
4:51 AM,39.9,37.9,93,31.05,10.0,Calm,Calm,-,N/A,,Clear,0,2013-09-18 08:51:00
5:51 AM,37.9,36.9,96,31.06,10.0,Calm,Calm,-,N/A,,Clear,0,2013-09-18 09:51:00
6:51 AM,37.9,36.0,93,31.08,10.0,Calm,Calm,-,N/A,,Clear,0,2013-09-18 10:51:00
7:51 AM,43.0,41.0,93,31.08,10.0,Calm,Calm,-,N/A,,Clear,0,2013-09-18 11:51:00
8:51 AM,50.0,43.9,79,31.06,10.0,Calm,Calm,-,N/A,,Clear,0,2013-09-18 12:51:00
9:51 AM,57.9,46.9,67,31.05,10.0,Calm,Calm,-,N/A,,Clear,0,2013-09-18 13:51:00
10:51 AM,63.9,43.9,48,31.03,10.0,Calm,Calm,-,N/A,,Clear,0,2013-09-18 14:51:00
11:51 AM,66.9,39.9,37,31.01,10.0,Calm,Calm,-,N/A,,Clear,0,2013-09-18 15:51:00
12:09 PM,68.0,41.0,37,30.25,2.5,NNW,4.6,-,0.00,,Clear,340,2013-09-18 16:09:00
12:18 PM,69.8,42.8,38,30.25,4.0,SSE,4.6,-,0.00,,Clear,160,2013-09-18 16:18:00
12:51 PM,70.0,39.9,33,30.98,10.0,Calm,Calm,-,0.00,,Clear,0,2013-09-18 16:51:00
1:51 PM,72.0,41.9,34,30.96,10.0,Variable,3.5,-,0.00,,Clear,0,2013-09-18 17:51:00
2:51 PM,72.9,39.9,30,30.93,10.0,Variable,4.6,-,0.00,,Clear,0,2013-09-18 18:51:00
3:51 PM,74.8,41.0,30,30.90,10.0,Calm,Calm,-,N/A,,Clear,0,2013-09-18 19:51:00
4:51 PM,73.9,41.0,30,30.89,10.0,Calm,Calm,-,N/A,,Clear,0,2013-09-18 20:51:00
5:51 PM,72.0,43.0,35,30.89,10.0,WSW,3.5,-,N/A,,Clear,250,2013-09-18 21:51:00
6:51 PM,64.9,43.9,46,30.89,10.0,Calm,Calm,-,N/A,,Clear,0,2013-09-18 22:51:00
7:51 PM,59.9,46.9,62,30.90,10.0,Calm,Calm,-,N/A,,Clear,0,2013-09-18 23:51:00
8:51 PM,56.8,47.8,72,30.89,10.0,Calm,Calm,-,N/A,,Clear,0,2013-09-19 00:51:00
9:51 PM,54.9,47.8,77,30.89,10.0,Calm,Calm,-,N/A,,Clear,0,2013-09-19 01:51:00
10:51 PM,52.0,47.8,86,30.89,10.0,Calm,Calm,-,N/A,,Clear,0,2013-09-19 02:51:00
11:51 PM,50.0,46.9,89,30.88,10.0,Calm,Calm,-,N/A,,Clear,0,2013-09-19 03:51:00